Warning: filectime(): stat failed for /home/allspect/public_html/aero/motest-cam/timelapse-current.mp4 in /home/allspect/public_html/aero/motest-cam/index.php on line 35
All Spectrum Aviation Van Nuys Pilot Shop and Aircraft Supplies - KVNY

All Spectrum Aviation - Van Nuys Airport - KVNY

HOME

Condor Squadron KVNY Webcam

Visit our Electronics Store

Condor Squadron Webcam - Van Nuys Airport - KVNY
Picture taken: Sat, 22 May 2021 11:36:35 -0700
YouTube Channel!    Latest Timelapse Movie    Full Size Image    Regular Size Image    

2021/10/24 12:51 KVNY 241251Z 00000KT 10SM OVC012 14/11 A2991 RMK AO2 SLP122 T01440111

HOME

Condor Squadron KVNY Webcam

Visit our Electronics Store